www.pogodaiklimat.ru

Архив погоды в Салехарде (Ямало-Ненецкий АО, Россия)

Время
(UTC), дата
12 27.01
15 27.01
18 27.01
21 27.01
00 28.01
03 28.01
06 28.01
09 28.01
12 28.01
15 28.01
18 28.01
21 28.01
00 29.01
03 29.01
06 29.01
09 29.01
12 29.01
15 29.01
18 29.01
21 29.01
00 30.01
03 30.01
06 30.01
09 30.01
12 30.01
15 30.01
18 30.01
21 30.01
00 31.01
03 31.01
06 31.01
09 31.01
12 31.01
15 31.01
18 31.01
21 31.01
00 1.02
03 1.02
06 1.02
09 1.02
12 1.02
15 1.02
18 1.02
21 1.02
00 2.02
03 2.02
06 2.02
09 2.02
12 2.02
15 2.02
18 2.02
21 2.02
00 3.02
03 3.02
Ветер
(напр.,м/с)
Видим. Явления Облачность Т
(С)
Тd
(С)
f
(%)
Тe
(С)
Тes
(С)
Комфортность P
(гПа)
Po
(гПа)
Тmin
(С)
Tmax
(С)
R
(мм)
R24
(мм)
S
(см)
ЮЗ 3 10 км {ливн. снег} 6/0
[Ci fib]
-4.6 -7.0 83 -10 -10 тепло 992.9 990.9
Ю 2 4000 м слаб. ливневой снег 10/10 300 м
[Cb calv]
-5.0 -6.9 86 -9 -9 тепло 994.5 992.4 -3.9 0.0
ЮЗ 2 10 км {ливн. снег} 8/0
[Ac As]
-6.9 -9.1 84 -11 -11 тепло 995.5 993.4
ЮЗ 4 10 км 10/0
[Ac und]
-5.6 -7.9 84 -12 -12 тепло 995.6 993.5
ЮЗ 4 10 км 10/0
[Ac und]
-8.1 -10.4 83 -15 -15 по сезону 996.5 994.4
З 2 10 км 10/0
[Ac und]
-6.6 -9.1 82 -11 -11 тепло 997.1 995.0 -11.1 0.2 30
ЮВ 2 20 км 10/3 1000 м
[Sc Ac lent Ci fib]
-11.4 -13.5 84 -16 -16 по сезону 997.4 995.2 -11.4
штиль 0 20 км 10/3 1000 м
[Sc Ac lent Ci fib]
-12.2 -14.2 85 -12 -12 тепло 998.7 996.6
З 3 10 км 10/5 1410 м
[Sc Ac trans Ci fib]
-7.1 -11.6 70 -13 -13 по сезону 1000.4 998.3
З 3 10 км 10/4 750 м
[Sc Ci fib]
-9.1 -14.4 65 -15 -15 по сезону 1001.5 999.4 -5.9
С 2 10 км 10/0
[Ac trans]
-13.0 -18.6 63 -18 -18 по сезону 1002.1 1000.0
СВ 2 10 км 6/0
[Ac trans]
-18.3 -22.4 70 -24 -24 прохладно 1002.8 1000.6
штиль 0 10 км 3/0
[Ci fib]
-27.2 -30.7 72 -27 -27 очень
холодно
1003.0 1000.8
СЗ 1 10 км ясно -29.6 -33.5 69 -34 -34 опасность
обморожения
1003.3 1001.0 -29.6 30
н/о
С 1 20 км 8/0
[Ci fib]
-26.4 -30.2 70 -30 -30 очень
холодно
1005.2 1002.9
С 1 10 км 10/0
[Ac trans Ci fib]
-26.0 -29.4 73 -30 -30 очень
холодно
1006.2 1003.9
Ю 1 4000 м слаб. снег 10/5 1230 м
[Sc Ac As]
-22.4 -25.6 75 -26 -26 холодно 1007.0 1004.8 -22.4 0.0
СВ 1 4000 м слаб. снег 10/0
[Ac As]
-18.9 -21.7 78 -22 -22 прохладно 1007.2 1005.0
В 1 4000 м слаб. ливневой снег 10/10
[Cb calv]
-16.8 -19.8 77 -20 -20 по сезону 1006.1 1004.0
В 1 4000 м слаб. ливневой снег 10/10 500 м
[Cb calv]
-16.0 -19.0 78 -19 -19 по сезону 1005.2 1003.0
В 1 4000 м слаб. ливневой снег 10/8 500 м
[Cb calv Ac trans]
-15.8 -18.6 79 -18 -18 тепло 1004.1 1001.9 -22.4 0.7 31
В 1 10 км слаб. ливневой снег 10/10 540 м
[Cb calv]
-15.0 -17.8 79 -18 -18 тепло 1002.9 1000.7
штиль 0 10 км снежные зёрна 10/10
[St]
-13.6 -16.5 79 -14 -14 тепло 1002.7 1000.6
штиль 0 10 км снежные кристаллы 10/8 400 м
[Frnb As op]
-14.3 -16.8 81 -14 -14 тепло 1002.9 1000.8
ЮЗ 1 4000 м слаб. снег 9/4 300 м
[Frnb Ac trans Cs]
-16.4 -18.9 81 -19 -19 по сезону 1003.6 1001.4 -13.3 0.3
Ю 1 10 км {снег} 10/0
[Ac As]
-19.4 -22.1 79 -22 -22 по сезону 1004.4 1002.2
Ю 1 10 км 10/6 1500 м
[Sc diur, vesp Ac trans]
-16.6 -19.2 80 -19 -19 тепло 1005.6 1003.5
Ю 2 10 км 10/8 1500 м
[Sc diur, vesp Ac trans]
-15.2 -17.7 81 -20 -20 по сезону 1006.5 1004.4
Ю 1 10 км 10/8 1410 м
[Sc diur, vesp Ac trans]
-14.0 -16.5 81 -16 -16 тепло 1007.1 1004.9 -22.4 0.0 33
ЮВ 2 10 км слаб. ливневой снег 10/10 1320 м
[Cb calv]
-12.4 -14.9 82 -17 -17 тепло 1007.7 1005.5
В 1 10 км слаб. ливневой снег 10/8 1260 м
[Cb calv Ac trans]
-11.2 -13.6 82 -13 -13 тепло 1007.3 1005.2
ЮВ 2 4000 м слаб. ливневой снег 10/6 1050 м
[Cb calv Ac trans]
-8.5 -10.8 83 -13 -13 тепло 1006.6 1004.5
Ю 4 10 км 10/4 1000 м
[Sc diur, vesp Ac trans]
-9.7 -12.4 81 -17 -17 тепло 1005.4 1003.3 -8.4 0.0
Ю 5 4000 м слаб. снег {ливн. снег} 10/8 400 м
[Frnb As op]
-10.6 -13.2 81 -18 -18 тепло 1004.4 1002.3
Ю 4 4000 м слаб. снег 10/0
[As op]
-11.1 -13.6 82 -18 -18 тепло 1003.3 1001.2
Ю 4 4000 м слаб. снег 10/10 300 м
[Ns]
-11.5 -13.8 83 -19 -19 тепло 1002.9 1000.8
Ю 2 4000 м слаб. снег 10/0
[As op]
-11.0 -13.2 84 -16 -16 тепло 1003.4 1001.3 -11.6 0.6 35
Ю 2 10 км слаб. ливневой снег 10/8 1500 м
[Cb calv Ac trans]
-10.6 -12.7 85 -15 -15 тепло 1004.3 1002.2
ЮЗ 2 20 км 6/1 1500 м
[Sc diur, vesp Ac trans Ci fib]
-12.2 -14.3 84 -17 -17 тепло 1006.1 1004.0
Ю 1 10 км 6/3
[Sc Ac trans]
-12.0 -13.9 86 -14 -14 тепло 1008.0 1005.9
ЮЗ 2 10 км 10/6 1500 м
[Sc Ac und]
-9.4 -11.3 86 -14 -14 тепло 1009.6 1007.4 -9.4 0.4
Ю 3 10 км 10/8 1500 м
[Sc Ac As]
-8.9 -11.1 84 -15 -15 тепло 1010.6 1008.5
Ю 2 10 км 10/5 1000 м
[Sc diur, vesp Ac und]
-10.0 -12.0 85 -15 -15 тепло 1011.2 1009.0
ЮЗ 1 10 км 10/6 1000 м
[Sc diur, vesp Ac und]
-9.4 -11.4 85 -12 -12 тепло 1012.1 1010.0
Ю 2 10 км 5/0
[Ac trans Ci fib]
-10.7 -12.5 87 -15 -15 тепло 1012.9 1010.8 -10.8 35
ЮЗ 1 20 км 8/4 1000 м
[Sc diur, vesp Ac trans Ci fib]
-11.0 -13.0 85 -13 -13 тепло 1014.7 1012.6 -13.7
Ю 2 20 км 10/5 1000 м
[Sc diur, vesp Ac trans]
-8.9 -10.8 86 -13 -13 тепло 1015.5 1013.4
ЮВ 1 10 км 10/8 1000 м
[Sc diur, vesp Ac trans]
-11.1 -13.1 85 -13 -13 тепло 1016.9 1014.7
Ю 2 10 км 5/0
[Ac trans]
-9.0 -10.7 87 -14 -14 тепло 1017.6 1015.5 -7.8
Ю 2 10 км 10/5 1500 м
[Sc Ac trans]
-8.3 -10.0 88 -13 -13 тепло 1018.0 1015.8
Ю 2 10 км 10/6 1500 м
[Sc Ac und]
-7.3 -9.0 88 -12 -12 тепло 1018.1 1015.9
Ю 3 2000 м дымка [диам. изморози 1 мм] 10/10
[St]
-9.9 -11.8 86 -16 -16 тепло 1018.4 1016.2
Ю 2 1000 м дымка [диам. изморози 5 мм] 10/10
[St]
-12.0 -14.1 84 -17 -17 тепло 1018.2 1016.0 -12.0 35
Местоположение метеостанции Салехард (Ямало-Ненецкий АО, Россия): широта 66.53 долгота 66.67 высота над уровнем моря 16 м.
В архиве по умолчанию представлена погода в Салехарде за последнюю неделю. Архивные данные за месяц целиком и за предыдущие месяцы, начиная с января 2011 года, Вы можете получить, выбрав интересующий диапазон дат из раскрывающегося списка и нажав кнопку "Найти!".
*Определитесь, кто Вы:
Внимание! Время в таблицах - всемирное. Для получения местного времени необходимо прибавить поправку, которая равна 5 ч.
Смотрите также архив погоды в соседних городах и на ближайших метеорологических станциях:
Партнеры нашего сайта:      
Пояснения к столбцам:
  • Ветер - указаны скорость ветра в м/с - средняя за 10 мин, порывы в срок и между сроками (в фигурных скобках) и направление, откуда дует ветер: С - северный,
  • СВ - северо-восточный, В - восточный, ЮВ - юго-восточный, Ю - южный, ЮЗ - юго-западный, З - западный, СЗ - северо-западный.
  • Видимость - горизонтальная дальность видимости в метрах или километрах. При видимости от 1 до 10 км при отсутствии осадков обычно наблюдается дымка, при ухудшении видимости до 1 км и менее - туман. В сухую погоду видимость может ухудшаться дымом, пылью или мглою.
  • Явления - указаны атмосферные явления, наблюдавшиеся в срок или в последний час перед сроком; фигурными скобками обозначены явления, наблюдавшиеся между сроками (за 1-3 часа до срока); квадратными скобками обозначены град или гололедные отложения с указанием их диаметра в мм.
  • Облачность - указаны через наклонную черту общая и нижняя облачность в баллах и высота нижней границы облаков в метрах; квадратными скобками обозначены формы облаков: Ci - перистые, Cs - перисто-слоистые, Cc - перисто-кучевые, Ac - высококучевые, As - высокослоистые, Sc - слоисто-кучевые, Ns - слоисто-дождевые, Cu - кучевые, Cb - кучево-дождевые. Подробнее классификацию облаков см. в Атласе облаков (PDF).
  • T - Температура воздуха - температура, измеренная на высоте 2 м над землей.
  • Td - Температура точки росы - температура, при понижении до которой содержащийся в воздухе водяной пар достигнет насыщения.
  • f - Относительная влажность воздуха - влажноcть воздуха, измеренная на высоте 2 м над землей.
  • Te - Эффективная температура - температура, которую ощущает одетый по сезону человек в тени. Характеристика душности погоды. При расчете учитывается влияние влажности воздуха и скорости ветра на теплоощущения человека.
  • Tes - Эффективная температура на солнце - температура, которую ощущает человек, с поправкой на солнечный нагрев. Характеристика знойности погоды. Зависит от высоты солнца над горизонтом, облачности и скорости ветра. Ночью, в пасмурную погоду, а также при ветре 12 м/с и более поправка равна нулю.
  • P - Атмосферное давление - приведенное к уровню моря атмосферное давление.
  • Po - Атмосферное давление - измеренное на уровне метеостанции атмосферное давление.
  • Tmin - Минимальная температура - минимум температуры воздуха на высоте 2 м над землей.
  • Tmax - Максимальная температура - максимум температуры воздуха на высоте 2 м над землей.
  • R - Количество осадков - Количество выпавших осадков за период времени, мм. При наведении курсора мыши на число - период времени, за который выпало указанное количество осадков.
  • R24 - Количество осадков - Количество выпавших осадков за 24 часа, мм.
  • S - Снежный покров - Высота снежного покрова, см. При наведении курсора мыши на число - состояние снежного покрова и степень покрытия местности в баллах.